Flag for United Kingdom Weather past 2 weeks in Greenwich Borough, England, United Kingdom

Now
59 °F

Partly sunny.


Feels Like: 57 °F
Forecast: 48 / 58 °F
Wind: 9 mph from Southwest

Location: Biggin Hill Airport

Current Time: Oct 24, 2014 at 1:10:49 PM

Latest Report: Oct 24, 2014 at 12:20 PM


Visibility: N/A

Pressure: 29.98 "Hg

Humidity: 88%

Dew point: 55 °F

Location of Greenwich BoroughLocation

Historic Weather in Greenwich Borough — Graph

°F

Greenwich Borough temperature yesterday

Maximum temperature yesterday: 57 °F (at 11:50 AM)
Minimum temperature yesterday: 52 °F (at 7:20 AM)
Average temperature yesterday: 55 °F

Past Weeks' High & Low Weather Summary

 TemperatureHumidityPressure
High64 °F (Oct 18, 9:20 AM)100% (Oct 13, 2:50 PM)30.30 "Hg (Oct 13, 2:50 PM)
Low43 °F (Oct 22, 6:50 AM)51% (Oct 21, 1:50 PM)29.42 "Hg (Oct 13, 6:50 AM)
Average56 °F81%29.83 "Hg
* Reported Oct 9 11:20 AM — Oct 24 11:50 AM, Greenwich Borough, Weather by CustomWeather, © 2014

Note: Actual official high and low records may vary slightly from our data, if they occured in-between our weather recording intervals... More about our weather records

Advertising

Greenwich Borough weather history for previous 24 hours

 ConditionsComfort  
Time TempWeatherWind HumidityBarometerVisibility
11:50 AM
Oct 24
59 °FPartly sunny.8 mph88%29.98 "HgN/A
11:20 AM57 °FPartly sunny.8 mph88%30.01 "HgN/A
10:50 AM59 °FPartly sunny.9 mph82%30.01 "HgN/A
10:20 AM57 °FPartly sunny.9 mph88%30.01 "HgN/A
9:50 AM57 °FPartly sunny.9 mph88%29.98 "HgN/A
9:20 AM57 °FLight rain. Partly sunny.9 mph88%30.01 "HgN/A
8:50 AM55 °FPartly sunny.8 mph94%30.01 "HgN/A
8:20 AM55 °FPassing clouds.9 mph94%30.01 "HgN/A
7:50 AM55 °FPassing clouds.9 mph94%29.98 "HgN/A
7:20 AM55 °FPassing clouds.9 mph94%29.98 "HgN/A
6:50 AM55 °FPassing clouds.9 mph94%29.98 "HgN/A
8:20 PM
Oct 23
57 °FLight rain. Passing clouds.12 mph88%30.07 "HgN/A
7:50 PM57 °FLight rain. Passing clouds.13 mph88%30.07 "HgN/A
7:20 PM57 °FPassing clouds.12 mph88%30.07 "HgN/A
6:50 PM55 °FScattered clouds.10 mph94%30.07 "HgN/A
6:20 PM57 °FDrizzle. Partly sunny.13 mph88%30.07 "Hg1 mi
5:50 PM57 °FPartly sunny.12 mph88%30.07 "HgN/A
5:20 PM55 °FDrizzle. Partly sunny.13 mph94%30.07 "HgN/A
4:50 PM55 °FScattered clouds.12 mph94%30.07 "HgN/A
4:20 PM55 °FDrizzle. Fog.12 mph88%30.09 "Hg2 mi
3:50 PM55 °FDrizzle. Partly sunny.13 mph94%30.09 "HgN/A
3:20 PM55 °FLight rain. Partly sunny.12 mph88%30.09 "Hg4 mi
2:50 PM57 °FPartly sunny.12 mph82%30.09 "HgN/A
2:20 PM57 °FScattered clouds.12 mph82%30.09 "HgN/A
1:50 PM57 °FScattered clouds.10 mph77%30.12 "HgN/A
1:20 PM57 °FScattered clouds.14 mph77%30.12 "HgN/A
Weather by CustomWeather, © 2014

See weather overviewHow to use our weather pages